GW1195 Weather Reports


Display with metric or nautical units.
time (UTC)temp
F
wind
direction
speed
MPH
gust
MPH
rain 1hr
in
rain 24hr
in
rain mn
in
humidity
%
barometer
mb
20260505041537 54 242 2.0 7.0 0.00 0.00 0.00 89 1014.4
20260505040050 55 203 2.0 6.0 0.00 0.00 0.00 88 1014.3
20260505034603 55 199 2.0 7.0 0.00 0.00 0.00 87 1014.1
20260505033043 55 220 2.0 7.0 0.00 0.00 0.00 86 1014.0
20260505031544 55 151 2.0 8.0 0.00 0.00 0.00 86 1014.1
20260505030047 56 207 1.0 6.0 0.00 0.00 0.00 85 1013.9
20260505024545 56 0 1.0 4.0 0.00 0.00 0.00 84 1013.8
20260505023046 57 232 2.0 7.0 0.00 0.00 0.00 83 1013.8
20260505021541 57 263 1.0 7.0 0.00 0.00 0.00 82 1013.7
20260505020053 57 254 4.0 9.0 0.00 0.00 0.00 82 1013.8
20260505014542 57 261 3.0 11.0 0.00 0.00 0.00 82 1014.0
20260505013041 58 238 2.0 8.0 0.00 0.00 0.00 80 1014.1
20260505011546 59 265 4.0 9.0 0.00 0.00 0.00 79 1014.0
20260505010104 59 264 3.0 7.0 0.00 0.00 0.00 78 1014.1
20260505004558 60 0 1.0 7.0 0.00 0.00 0.00 78 1014.0
20260505003042 60 235 3.0 10.0 0.00 0.00 0.00 78 1014.1
20260505001543 60 265 4.0 11.0 0.00 0.00 0.00 77 1014.2
20260505000041 60 267 4.0 11.0 0.00 0.00 0.00 77 1014.2
20260504234544 61 265 5.0 12.0 0.00 0.00 0.00 75 1014.1
20260504233044 61 286 5.0 10.0 0.00 0.00 0.00 76 1014.2
20260504231558 61 231 5.0 12.0 0.00 0.00 0.00 76 1014.3
20260504230042 61 255 6.0 14.0 0.00 0.00 0.00 76 1014.2
20260504224543 62 255 5.0 12.0 0.00 0.00 0.00 75 1014.3
20260504223040 62 244 4.0 10.0 0.00 0.00 0.00 74 1014.3
20260504221612 63 261 4.0 12.0 0.00 0.00 0.00 73 1014.3
20260504220043 62 285 5.0 10.0 0.00 0.00 0.00 75 1014.3
20260504214538 62 265 5.0 11.0 0.00 0.00 0.00 74 1014.3
20260504213044 63 271 3.0 10.0 0.00 0.00 0.00 73 1014.3
20260504211541 63 288 3.0 12.0 0.00 0.00 0.00 73 1014.3
20260504210047 63 252 1.0 8.0 0.00 0.00 0.00 75 1014.4
20260504204542 61 277 2.0 7.0 0.00 0.00 0.00 76 1014.5
20260504203045 61 200 3.0 8.0 0.00 0.00 0.00 77 1014.7
20260504201544 61 220 2.0 10.0 0.00 0.00 0.00 78 1014.9
20260504200041 61 191 2.0 9.0 0.00 0.00 0.00 78 1014.7
20260504194549 60 283 3.0 8.0 0.00 0.00 0.00 80 1014.9
20260504193046 60 180 0.0 5.0 0.00 0.00 0.00 79 1014.8
20260504191608 59 209 2.0 7.0 0.00 0.00 0.00 80 1014.8
20260504190045 59 198 2.0 7.0 0.00 0.00 0.00 81 1014.9
20260504184554 59 195 2.0 7.0 0.00 0.00 0.00 81 1014.8
20260504183041 58 182 2.0 7.0 0.00 0.00 0.00 82 1014.6
20260504181542 58 167 2.0 6.0 0.00 0.00 0.00 82 1014.5
20260504180040 58 207 1.0 5.0 0.00 0.00 0.00 83 1014.5
20260504174544 58 197 2.0 6.0 0.00 0.00 0.00 83 1014.4
20260504173044 57 168 1.0 4.0 0.00 0.00 0.00 83 1014.4
20260504171543 57 173 2.0 5.0 0.00 0.00 0.00 85 1014.4
20260504081540 54 14 0.0 3.0 0.00 0.00 0.00 91 1012.6